Location: Hartford
(41.7640°N, 72.6860°W)
Time: 19:03:07
(UTC-04:00)

ISS - Visible Passes

Search period start: 30 March 2015 00:00
Search period end: 09 April 2015 00:00
Orbit: 396 x 405 km, 51.6° (Epoch: 30 March)

Date Brightness Start Highest point End Pass type
(mag) Time Alt. Az. Time Alt. Az. Time Alt. Az.
30 Mar -0.5 04:02:46 18° ENE 04:02:46 18° ENE 04:04:04 10° E visible
30 Mar -3.2 05:35:23 15° WNW 05:37:49 50° SW 05:40:57 10° SE visible
31 Mar -3.1 04:44:49 66° ESE 04:44:49 66° ESE 04:47:39 10° ESE visible
01 Apr -2.1 05:27:09 22° SW 05:27:10 22° SW 05:29:43 10° S visible
02 Apr -0.7 21:09:31 10° SSW 21:09:51 12° SSW 21:09:51 12° SSW visible
03 Apr -2.1 20:16:36 10° S 20:19:14 23° SE 20:20:02 21° ESE visible
03 Apr -0.3 21:52:21 10° WSW 21:52:42 12° W 21:52:42 12° W visible
04 Apr -3.3 20:58:36 10° WSW 21:01:52 78° NW 21:02:31 53° NE visible
05 Apr -3.2 20:05:08 10° SW 20:08:19 53° SE 20:11:30 10° ENE visible
05 Apr -1.1 21:42:04 10° W 21:44:37 25° NNW 21:44:37 25° NNW visible
06 Apr -2.0 20:48:00 10° W 20:51:06 39° NNW 20:53:46 13° NE visible
06 Apr 0.2 22:26:05 10° NW 22:26:23 11° NW 22:26:23 11° NW visible
07 Apr -3.0 19:54:08 10° WSW 19:57:24 69° NNW 20:00:39 10° NE visible
07 Apr -0.8 21:31:51 10° WNW 21:34:14 18° NNW 21:35:17 16° N visible
08 Apr -1.1 20:37:35 10° WNW 20:40:20 24° NNW 20:43:04 10° NE visible
08 Apr -0.1 22:15:40 10° NW 22:16:35 13° NNW 22:16:35 13° NNW visible
